TimeCDT,TemperatureF,Dew PointF,Humidity,Sea Level PressureIn,VisibilityMPH,Wind Direction,Wind SpeedMPH,Gust SpeedMPH,PrecipitationIn,Events,Conditions,WindDirDegrees,DateUTC
12:54 AM,75.9,68.0,76,30.05,10.0,SE,11.5,-,N/A,,Partly Cloudy,130,2013-08-24 05:54:00
1:54 AM,75.0,66.9,76,30.05,10.0,SSE,11.5,28.8,N/A,,Partly Cloudy,150,2013-08-24 06:54:00
2:54 AM,75.0,66.9,76,30.06,10.0,SE,9.2,-,N/A,,Mostly Cloudy,140,2013-08-24 07:54:00
3:54 AM,73.9,68.0,82,30.06,10.0,SE,10.4,-,N/A,,Mostly Cloudy,140,2013-08-24 08:54:00
4:54 AM,73.0,68.0,84,30.07,10.0,SSE,9.2,-,N/A,,Mostly Cloudy,150,2013-08-24 09:54:00
5:54 AM,73.0,66.9,81,30.08,10.0,SSE,9.2,-,N/A,,Mostly Cloudy,150,2013-08-24 10:54:00
6:54 AM,72.0,68.0,87,30.11,9.0,SSE,9.2,-,N/A,,Mostly Cloudy,160,2013-08-24 11:54:00
7:54 AM,73.9,68.0,82,30.11,9.0,SSE,11.5,-,N/A,,Mostly Cloudy,160,2013-08-24 12:54:00
8:54 AM,77.0,69.1,76,30.12,9.0,South,10.4,-,N/A,,Mostly Cloudy,170,2013-08-24 13:54:00
9:54 AM,79.0,69.1,72,30.12,9.0,South,12.7,-,N/A,,Mostly Cloudy,170,2013-08-24 14:54:00
10:54 AM,84.0,71.1,65,30.12,10.0,SSE,12.7,-,N/A,,Mostly Cloudy,160,2013-08-24 15:54:00
11:54 AM,87.1,71.1,59,30.11,10.0,SSW,10.4,-,N/A,,Mostly Cloudy,200,2013-08-24 16:54:00
12:54 PM,89.1,70.0,53,30.10,10.0,South,15.0,-,N/A,,Mostly Cloudy,180,2013-08-24 17:54:00
1:54 PM,91.0,69.1,48,30.07,10.0,South,17.3,-,N/A,,Mostly Cloudy,190,2013-08-24 18:54:00
2:54 PM,91.9,66.9,44,30.05,10.0,South,18.4,-,N/A,,Mostly Cloudy,190,2013-08-24 19:54:00
3:54 PM,93.9,66.9,41,30.04,10.0,SSW,15.0,24.2,N/A,,Mostly Cloudy,200,2013-08-24 20:54:00
4:54 PM,91.0,66.9,45,30.03,10.0,South,13.8,21.9,N/A,,Mostly Cloudy,180,2013-08-24 21:54:00
5:54 PM,91.0,68.0,47,30.03,10.0,South,10.4,-,N/A,,Mostly Cloudy,170,2013-08-24 22:54:00
6:54 PM,89.1,68.0,50,30.03,10.0,South,10.4,-,N/A,,Mostly Cloudy,180,2013-08-24 23:54:00
7:54 PM,86.0,69.1,57,30.03,10.0,South,9.2,-,N/A,,Scattered Clouds,170,2013-08-25 00:54:00
8:54 PM,82.9,68.0,60,30.05,10.0,South,9.2,-,N/A,,Scattered Clouds,170,2013-08-25 01:54:00
9:54 PM,82.0,66.9,60,30.06,10.0,South,10.4,-,N/A,,Partly Cloudy,180,2013-08-25 02:54:00
10:54 PM,82.0,66.9,60,30.07,10.0,South,10.4,-,N/A,,Clear,180,2013-08-25 03:54:00
11:54 PM,81.0,66.9,62,30.07,10.0,SSW,9.2,-,N/A,,Partly Cloudy,200,2013-08-25 04:54:00